Dumas, TX

10:40 PM CDT on May 25, 2017 (GMT -0500)
Moore County

Weather History for KDUX - May, 2014

Change the Weather History Date:

Saturday, May 31, 2014

  Actual Average (KDHT) Record (KDHT)
Temperature  
Mean Temperature 73 °F -  
Max Temperature 88 °F 82 °F 99 °F (2002)
Min Temperature 58 °F 53 °F 40 °F (2004)
Cooling Degree Days 8    
Growing Degree Days 23 (Base 50)    
Moisture  
Dew Point 59 °F    
Average Humidity 64    
Maximum Humidity 93    
Minimum Humidity 33    
Precipitation  
Precipitation 0.07 in - - ()
Sea Level Pressure  
Sea Level Pressure 30.05 in    
Wind  
Wind Speed 6 mph (SSE)    
Max Wind Speed 21 mph    
Max Gust Speed 26 mph    
Visibility 10 miles    
Events Rain    
Averages and records for this station are not official NWS values.
T = Trace of Precipitation, MM = Missing Value Source: NWS Daily Summary

Daily Weather History Graph

Daily Weather History Graph

Search for Another Location

Airport or City:

Trip Planner

Search our weather history database for the weather conditions in past years. The results will help you decide how hot, cold, wet, or windy it might be!

Date:

Astronomy

May. 31, 2014 Rise Set
Actual Time 6:33 AM CDT 8:58 PM CDT
Civil Twilight 6:03 AM CDT 9:28 PM CDT
Nautical Twilight 5:27 AM CDT 10:04 PM CDT
Astronomical Twilight 4:47 AM CDT 10:44 PM CDT
Moon 9:09 AM CDT (5/31) 11:21 PM CDT (5/31)
Length of Visible Light 15h 24m
Length of Day
14h 25m
Waxing Crescent, 8% of the Moon is Illuminated
May 31
Waxing Crescent
Jun 5
First Quarter
Jun 12
Full
Jun 19
Last Quarter
Jun 27
New

Hourly Weather History & Observations

Time (CDT) Temp. Heat Index Dew Point Humidity Pressure Visibility Wind Dir Wind Speed Gust Speed Precip Events Conditions
12:15 AM 70.3 °F - 56.8 °F 62% 30.05 in 10.0 mi SE 10.4 mph - N/A   Clear
12:35 AM 69.1 °F - 57.0 °F 65% 30.06 in 10.0 mi SE 3.5 mph - N/A   Clear
1:15 AM 68.9 °F - 58.1 °F 68% 30.07 in 10.0 mi Calm Calm - N/A   Clear
1:35 AM 67.8 °F - 58.6 °F 72% 30.11 in 10.0 mi Calm Calm - N/A   Scattered Clouds
1:55 AM 67.1 °F - 58.8 °F 75% 30.09 in 10.0 mi Calm Calm - N/A   Scattered Clouds
2:15 AM 65.5 °F - 61.2 °F 86% 30.08 in 7.0 mi SSE 11.5 mph - 0.02 in Rain Light Rain
2:35 AM 64.8 °F - 61.7 °F 90% 30.07 in 10.0 mi ESE 12.7 mph - 0.06 in Rain Light Rain
2:55 AM 64.6 °F - 61.7 °F 90% 30.07 in 10.0 mi ESE 12.7 mph - 0.06 in Rain Light Rain
3:15 AM 63.9 °F - 61.5 °F 92% 30.07 in 10.0 mi SE 6.9 mph - N/A   Clear
3:35 AM 64.4 °F - 61.7 °F 91% 30.09 in 10.0 mi Calm Calm - N/A   Mostly Cloudy
3:55 AM 64.6 °F - 61.7 °F 90% 30.12 in 10.0 mi North 6.9 mph 21.9 mph 0.01 in   Overcast
4:15 AM 64.9 °F - 61.2 °F 88% 30.13 in 10.0 mi Calm Calm - N/A   Overcast
4:35 AM 62.6 °F - 59.0 °F 88% 30.12 in 10.0 mi NNE 13.8 mph 19.6 mph N/A   Overcast
4:55 AM 59.5 °F - 55.6 °F 87% 30.12 in 10.0 mi NE 3.5 mph - N/A   Overcast
5:15 AM 59.9 °F - 55.6 °F 86% 30.11 in 10.0 mi Calm Calm - N/A   Overcast
5:35 AM 60.3 °F - 56.5 °F 87% 30.11 in 10.0 mi Calm Calm - N/A   Overcast
5:55 AM 59.9 °F - 55.0 °F 84% 30.10 in 10.0 mi Calm Calm - N/A   Mostly Cloudy
6:15 AM 59.4 °F - 55.6 °F 87% 30.10 in 10.0 mi Calm Calm - N/A   Scattered Clouds
6:35 AM 58.5 °F - 55.9 °F 91% 30.10 in 10.0 mi Calm Calm - N/A   Scattered Clouds
6:55 AM 58.5 °F - 56.5 °F 93% 30.10 in 10.0 mi Calm Calm - N/A   Scattered Clouds
7:15 AM 58.8 °F - 56.5 °F 92% 30.10 in 10.0 mi Calm Calm - N/A   Scattered Clouds
7:35 AM 59.9 °F - 56.8 °F 90% 30.10 in 10.0 mi Calm Calm - N/A   Clear
7:55 AM 61.7 °F - 58.1 °F 88% 30.11 in 10.0 mi Calm Calm - N/A   Clear
8:15 AM 63.5 °F - 59.7 °F 87% 30.11 in 10.0 mi Calm Calm - N/A   Scattered Clouds
8:35 AM 64.8 °F - 60.4 °F 86% 30.11 in 10.0 mi SE 10.4 mph - N/A   Scattered Clouds
8:55 AM 65.8 °F - 60.3 °F 82% 30.12 in 10.0 mi Calm Calm - N/A   Clear
9:15 AM 66.7 °F - 60.6 °F 81% 30.12 in 10.0 mi Calm Calm - N/A   Clear
9:35 AM 68.0 °F - 61.0 °F 78% 30.12 in 10.0 mi Calm Calm - N/A   Clear
9:55 AM 69.1 °F - 61.5 °F 77% 30.12 in 10.0 mi South 10.4 mph - N/A   Clear
10:15 AM 70.7 °F - 61.7 °F 73% 30.11 in 10.0 mi SSE 9.2 mph - N/A   Clear
10:35 AM 71.2 °F - 61.0 °F 70% 30.11 in 10.0 mi South 5.8 mph - N/A   Clear
10:55 AM 72.9 °F - 61.0 °F 66% 30.11 in 10.0 mi South 9.2 mph - N/A   Clear
11:15 AM 73.4 °F - 60.1 °F 63% 30.10 in 10.0 mi Calm Calm - N/A   Clear
11:35 AM 74.5 °F - 60.4 °F 61% 30.10 in 10.0 mi South 8.1 mph - N/A   Clear
11:55 AM 76.3 °F - 60.4 °F 58% 30.10 in 10.0 mi South 10.4 mph - N/A   Clear
12:15 PM 76.6 °F - 59.4 °F 55% 30.10 in 10.0 mi Calm Calm - N/A   Scattered Clouds
12:35 PM 77.4 °F - 59.4 °F 54% 30.09 in 10.0 mi South 8.1 mph - N/A   Scattered Clouds
12:55 PM 77.9 °F - 59.4 °F 53% 30.09 in 10.0 mi Calm Calm - N/A   Scattered Clouds
1:15 PM 78.1 °F - 58.5 °F 51% 30.08 in 10.0 mi South 10.4 mph - N/A   Scattered Clouds
1:35 PM 78.4 °F - 59.0 °F 51% 30.07 in 10.0 mi SSW 11.5 mph - N/A   Scattered Clouds
1:55 PM 79.0 °F - 58.6 °F 50% 30.07 in 10.0 mi Calm Calm - N/A   Scattered Clouds
2:15 PM 81.1 °F 81.4 °F 58.8 °F 46% 30.06 in 10.0 mi South 11.5 mph - N/A   Scattered Clouds
2:35 PM 82.4 °F 82.3 °F 58.5 °F 44% 30.05 in 10.0 mi SSE 3.5 mph - N/A   Clear
2:55 PM 82.9 °F 82.8 °F 58.6 °F 44% 30.04 in 10.0 mi South 9.2 mph - N/A   Scattered Clouds
3:15 PM 84.7 °F 84.2 °F 58.3 °F 41% 30.03 in 10.0 mi South 10.4 mph - N/A   Clear
3:35 PM 84.6 °F 83.9 °F 57.6 °F 40% 30.02 in 10.0 mi Calm Calm - N/A   Scattered Clouds
3:55 PM 85.5 °F 84.5 °F 57.4 °F 38% 30.01 in 10.0 mi South 8.1 mph 16.1 mph N/A   Clear
4:15 PM 86.0 °F 84.9 °F 56.8 °F 37% 30.00 in 10.0 mi South 6.9 mph - N/A   Clear
4:35 PM 87.1 °F 85.7 °F 56.1 °F 35% 30.00 in 10.0 mi SSW 9.2 mph - N/A   Clear
4:55 PM 86.5 °F 85.3 °F 56.3 °F 36% 29.98 in 10.0 mi South 10.4 mph - N/A   Clear
5:15 PM 86.7 °F 85.3 °F 56.1 °F 35% 29.98 in 10.0 mi Calm Calm - N/A   Clear
5:35 PM 86.4 °F 84.7 °F 55.2 °F 34% 29.97 in 10.0 mi Calm Calm - N/A   Clear
5:55 PM 88.0 °F 86.3 °F 55.4 °F 33% 29.96 in 10.0 mi South 3.5 mph 10.4 mph N/A   Clear
6:15 PM 87.8 °F 86.1 °F 55.2 °F 33% 29.96 in 10.0 mi SSE 10.4 mph 17.3 mph N/A   Clear
6:35 PM 87.1 °F 85.5 °F 55.2 °F 34% 29.95 in 10.0 mi SSE 11.5 mph - N/A   Clear
7:15 PM 86.9 °F 85.3 °F 55.4 °F 34% 29.93 in 10.0 mi SSE 13.8 mph 18.4 mph N/A   Clear
7:35 PM 86.4 °F 84.7 °F 55.0 °F 34% 29.93 in 10.0 mi SSE 11.5 mph - N/A   Clear
7:55 PM 85.1 °F 83.8 °F 55.4 °F 36% 29.93 in 10.0 mi SE 11.5 mph - N/A   Clear
8:15 PM 83.3 °F 82.6 °F 56.7 °F 40% 29.94 in 10.0 mi SE 10.4 mph - N/A   Clear
8:35 PM 81.0 °F 81.3 °F 58.8 °F 47% 29.94 in 10.0 mi SE 15.0 mph 23.0 mph N/A   Clear
8:55 PM 79.2 °F - 59.2 °F 50% 29.94 in 10.0 mi SE 12.7 mph - N/A   Clear
9:15 PM 78.1 °F - 59.0 °F 52% 29.95 in 10.0 mi SE 13.8 mph - N/A   Clear
9:35 PM 77.2 °F - 59.4 °F 54% 29.95 in 10.0 mi SE 12.7 mph - N/A   Clear
9:55 PM 76.6 °F - 59.9 °F 56% 29.95 in 10.0 mi SE 19.6 mph 26.5 mph N/A   Clear
10:15 PM 75.4 °F - 60.1 °F 59% 29.96 in 10.0 mi SE 16.1 mph 23.0 mph N/A   Clear
10:35 PM 74.5 °F - 60.1 °F 61% 29.97 in 10.0 mi SE 19.6 mph 23.0 mph N/A   Clear
10:55 PM 73.6 °F - 59.9 °F 62% 29.97 in 10.0 mi SE 18.4 mph 24.2 mph N/A   Clear
11:15 PM 73.0 °F - 59.9 °F 63% 29.98 in 10.0 mi SE 20.7 mph 25.3 mph N/A   Clear
11:35 PM 72.3 °F - 60.1 °F 65% 29.98 in 10.0 mi SE 19.6 mph 24.2 mph N/A   Clear
11:55 PM 71.6 °F - 60.3 °F 67% 29.98 in 10.0 mi SE 19.6 mph 25.3 mph N/A   Clear